This demonstration page uses our WeatherBlox Daily Observations layout. Learn more.

Left ArrowRight Arrow

39.08367, -84.50855

Hourly Observations for March 4, 2019

Temp ( °F °C ) Dew Point ( °F °C ) Humidity (%) Winds ( mph kmh ) Pressure ( in mb ) Visibility ( mi km ) Precip ( " mm )
12:27 am 00:27 Cloudy 27 -2.8 20 -6.7 75 75 NNW 13 20 30.14 1021 10 16 N/A
12:53 am 00:53 Cloudy 27 -2.8 20 -6.7 75 75 NW 7 11 30.13 1020 10 16 N/A
1:53 am 01:53 Cloudy 26 -3.3 18 -7.8 71 71 NW 14 22 30.14 1021 10 16 N/A
2:53 am 02:53 Cloudy 24 -4.4 16 -8.9 71 71 NNW 10 17 30.16 1021 10 16 N/A
3:53 am 03:53 Cloudy 22 -5.6 13 -10.6 68 68 NNW 12 19 30.15 1021 10 16 N/A
4:04 am 04:04 Cloudy 22 -5.6 13 -10.6 68 68 NNW 13 20 30.18 1022 10 16 N/A
4:53 am 04:53 Cloudy 21 -6.1 10 -12.2 62 62 NNW 12 19 30.18 1022 10 16 N/A
5:53 am 05:53 Cloudy 20 -6.7 7 -13.9 57 57 NNW 9 15 30.21 1023 10 16 N/A
6:53 am 06:53 Cloudy 18 -7.8 7 -13.9 62 62 NW 8 13 30.21 1023 10 16 N/A
7:53 am 07:53 Cloudy 18 -7.8 7 -13.9 62 62 NNW 5 7 30.22 1023 10 16 N/A
8:53 am 08:53 Cloudy 19 -7.2 8 -13.3 62 62 W 8 13 30.24 1024 10 16 N/A
9:24 am 09:24 Cloudy 19 -7.2 10 -12.2 68 68 W 12 19 30.27 1025 8 13 N/A
9:53 am 09:53 Cloudy 19 -7.2 9 -12.8 65 65 W 9 15 30.25 1024 10 16 N/A
10:19 am 10:19 Cloudy with Light Snow 18 -7.8 10 -12.2 71 71 W 13 20 30.29 1026 4 6 N/A
10:53 am 10:53 Mostly Cloudy 18 -7.8 6 -14.4 59 59 WNW 13 20 30.25 1024 10 16 N/A
11:53 am 11:53 Mostly Sunny 20 -6.7 5 -15 52 52 W 17 28 30.25 1024 10 16 N/A
12:53 pm 12:53 Mostly Sunny 20 -6.7 4 -15.6 50 50 WNW 15 24 30.25 1025 10 16 N/A
1:53 pm 13:53 Sunny 22 -5.6 5 -15 48 48 W 15 24 30.24 1024 10 16 N/A
2:53 pm 14:53 Mostly Sunny 22 -5.6 7 -13.9 52 52 W 13 20 30.23 1024 10 16 N/A
3:53 pm 15:53 Mostly Sunny 22 -5.6 7 -13.9 52 52 W 14 22 30.24 1024 10 16 N/A
4:53 pm 16:53 Mostly Sunny 22 -5.6 7 -13.9 52 52 W 12 19 30.24 1024 10 16 N/A
5:53 pm 17:53 Mostly Sunny 21 -6.1 6 -14.4 52 52 W 10 17 30.24 1024 10 16 N/A
6:53 pm 18:53 Clear 20 -6.7 5 -15 52 52 NW 5 7 30.24 1024 10 16 N/A
7:53 pm 19:53 Mostly Clear 19 -7.2 4 -15.6 51 51 WNW 9 15 30.25 1024 10 16 N/A
8:53 pm 20:53 Mostly Clear 17 -8.3 5 -15 59 59 NW 8 13 30.26 1025 10 16 N/A
9:53 pm 21:53 Clear 16 -8.9 4 -15.6 59 59 WNW 8 13 30.26 1025 10 16 N/A
10:53 pm 22:53 Clear 14 -10 3 -16.1 61 61 NW 7 11 30.27 1025 10 16 N/A
11:53 pm 23:53 Clear 13 -10.6 3 -16.1 64 64 WNW 8 13 30.27 1025 10 16 N/A

Powered by AerisWeather